{"data":{"norad_id":69014,"intl_designator":"2026-100AL","name":"SNAPPY","alt_names":[],"object_type":"PAYLOAD","status":"ACTIVE","operator":null,"country":"US","launch_date":"2026-05-03","launch_site_code":"AFWTR","launch_vehicle":null,"mission":null,"orbit_class":"UNKNOWN","rcs_meters":null,"size_class":null,"mass_kg":null,"dimensions":null,"purposes":[],"wikipedia_slug":null,"has_3d_model":false,"image_url":null,"decayed_at":null,"tle_current":{"epoch":"2026-09-18T04:41:59.508096Z","epoch_age_seconds":218347,"freshness":"STALE","line1":"1 69014U 26100AL  26261.19582764  .00003011  00000+0  13571-3 0  9992","line2":"2 69014  97.3927 157.5226 0007809  90.7611 269.4520 15.21778110 20952","mean_motion":15.2177811,"eccentricity":0.0007809,"inclination_deg":97.3927,"raan_deg":157.5226,"arg_perigee_deg":90.7611,"mean_anomaly_deg":269.452,"bstar":0.00013571,"rev_number":2095,"period_min":94.626147566283,"perigee_km":495.10570507803,"apogee_km":505.84872475889,"semimajor_km":6878.6142149185,"source":"CELESTRAK","updated_at":"2026-09-20T09:00:24.630001Z"}}}